Location: Bourg-d�Oueil
(42.8588°N, 0.4991°E)
Time: 16:08:52
(UTC+00:00)

NOSS 0 Rocket - Pass Details

Date: 16 June 2021
Orbit: 934 x 956 km, 70.0° (Epoch: 03 August)

Event Time Altitude Azimuth Distance (km) Brightness Sun altitude
Exits shadow 23:45:23 29° 235° (SW) 1,654 4.9 -23.7°
Maximum altitude 23:48:26 56° 300° (WNW) 1,117 4.4 -23.7°
Drops below altitude 10° 23:54:34 10° 19° (NNE) 2,686 7.3 -23.8°
Sets 23:57:11 0° 24° (NNE) 3,637 8.1 -23.8°
